Weather in Velyka Dymerka

Ukraine / Kyiv Region     50°35′30″N   30°54′11″E
temp.,
°C
wind,
m/s
gust,
m/s
humid.,
%
clouds,
%
prec.,
mm/h
press.,
hPa
HPBL,
m
7 march, sun
sun723:00−5w34740 0.0 102572
02:00−5sw48790 0.0 1024173
05:00−5sw612840 0.0 1021336
08:00−3sw7148129 0.0 1019557
11:00+1wsw9157695 0.0 10161174
14:00+2wsw8157796 0.0 10131363
17:00+2w7147696 0.0 10121055
20:00+1w7158395 0.0 1011827
8 march, mon
mon823:00−1wsw6148524 0.0 1010739
02:00−1w6138553 0.0 1009735
05:000w6128697 0.0 1009730
08:00−1wnw598097 0.1 1010938
11:000wnw696630 0.0 10111299
14:00+1wnw585842 0.1 10111654
17:00−1wnw7117795 0.3 10111013
20:00−2nw6127071 0.3 1014732
9 march, tue
tue923:00−3nw59750 0.0 1015606
02:00−4nw49795 0.0 1017555
05:00−4nw478416 0.0 1018475
08:00−5n468452 0.1 1020684
11:00−4n456893 0.0 1021943
14:00−3nnw345896 0.1 10221128
17:00−3ne236893 0.0 1023452
20:00−5e237897 0.0 1024153
10 march, wed
wed1023:00−5se237797 0.0 1025150
02:00−6se237972 0.0 1026126
05:00−7se348060 0.0 1025137
08:00−7se347679 0.0 1026191
11:00−4se346566 0.0 1026398
14:00−3se336247 0.0 1025596
17:00−4se34730 0.0 1024349
20:00−5se34760 0.0 1026159
11 march, thu
thu1123:00−6se24760 0.0 1026126
02:00−6sse23770 0.0 1026101
05:00−6sse23760 0.0 102689
08:00−6sse34690 0.0 1026168
11:00−2s34540 0.0 1026596
14:000sse45470 0.0 10251106
17:00−1sse47570 0.0 1024452
20:00−2sse6106033 0.0 1024414